Regional Weather Roundup
Issued by NWS Charleston, SC

Current Version | Previous Version | Text Only | Print | Product List | Glossary Off
Versions: 1 2 3 4 5 6 7 8 9 10 11 12 13 14 15 16 17 18 19 20 21 22 23 24 25 26 27 28 29 30 31 32 33 34 35 36 37 38 39 40 41 42 43 44 45 46 47 48 49 50

000
ASUS42 KCHS 281611
RWRCHS

REGIONAL WEATHER ROUNDUP
NATIONAL WEATHER SERVICE CHARLESTON SC
1200 PM EDT SAT MAR 28 2015

NOTE: "FAIR" INDICATES FEW OR NO CLOUDS BELOW 12,000 FEET WITH NO
SIGNIFICANT WEATHER AND/OR OBSTRUCTIONS TO VISIBILITY.

NOT ALL STATIONS ARE QUALITY CONTROLLED BY THE NATIONAL
WEATHER SERVICE. USE DATA WITH CAUTION...ESPECIALLY
DEWPOINT OBSERVATIONS.

SCZ027-030-031-034>040-042>050-281700-
...SOUTHEAST SOUTH CAROLINA...

CITY           SKY/WX    TMP DP  RH WIND       PRES   REMARKS
N CHARLESTON   MOSUNNY   51  30  44 W13       30.08S
WATERFRONT PRK   N/A     52 N/A N/A NW9G16      N/A
MOUNT PLEASANT FAIR      52  34  50 W3        30.07F
PINOPOLIS        N/A     52  34  50 NW7       30.00R
MONCKS CORNER  PTSUNNY   50  32  50 NW5       30.08R
SUMMERVILLE    PTSUNNY   52  32  46 W8        30.09S
BEAUFORT MCAS  MOSUNNY   52  29  41 W14       30.10S
BEAUFORT ARPT  FAIR      54  34  47 W13G21    30.10S
HILTON HEAD IS MOSUNNY   54  32  43 W8G18     30.11S
WALTERBORO     PTSUNNY   50  28  43 W14       30.10S
ALLENDALE      FAIR      50  25  37 VRB6G14   30.10S

...SOUTHERN MIDLANDS AND PEE DEE...

CITY           SKY/WX    TMP DP  RH WIND       PRES   REMARKS
GEORGETOWN     NOT AVBL
KINGSTREE      NOT AVBL
ORANGEBURG     PTSUNNY   51  27  39 W8G16     30.09R
BARNWELL       PTSUNNY   52  32  46 NW8       30.11S
AIKEN          PTSUNNY   45  28  53 NW7       30.13S
MANNING        FAIR      48   3  15 NW9       30.08S
COLUMBIA       MOSUNNY   48  24  39 W8G20     30.09R
SUMTER         MOSUNNY   49  28  43 NW12      30.06R
FLORENCE       PTSUNNY   49  28  44 NW7G17    30.07R
MYRTLE BEACH   PTSUNNY   50  34  53 N14       30.08R
N MYRTLE BEACH PTSUNNY   48  31  51 W9        30.06R

$$

GAZ063-065-086>088-099>101-113>116-118-119-134>141-150-281700-
...SOUTHEAST GEORGIA...

CITY           SKY/WX    TMP DP  RH WIND       PRES   REMARKS
SAVANNAH ARPT  MOSUNNY   54  28  36 W17G24    30.12S
HUNTER AAF     SUNNY     54  30  39 W10G21    30.10S
FORT STEWART   PTSUNNY   53  30  42 W10G18    30.12S
STATESBORO     SUNNY     52  32  47 NW10G16   30.12F
SYLVANIA       MOSUNNY   51  32  49 W13G20    30.13S
CLAXTON        FAIR      52  34  50 NW8G18    30.13F

...CSRA...CENTRAL AND FAR SOUTHEAST GEORGIA...

CITY           SKY/WX    TMP DP  RH WIND       PRES   REMARKS
THOMSON        SUNNY     49  28  44 W6        30.16S
AUGUSTA-BUSH   SUNNY     50  25  37 NW12      30.12R
AUGUSTA-DANIEL SUNNY     48  24  39 VRB5G16   30.12R
SWAINSBORO     FAIR      52   9  17 W9G22     30.14S
VIDALIA        SUNNY     50  32  50 NW12      30.14F
EASTMAN        FAIR      51  29  44 W10       30.19R
HAZLEHURST     FAIR      54  32  43 NW6       30.14F
ALMA           MOSUNNY   52  32  46 W12       30.16S
WAYCROSS       PTSUNNY   56  36  45 NW14      30.17S
JESUP          PTSUNNY   55  34  44 NW7G22    30.15S
BAXLEY         PTSUNNY   52  34  50 W7        30.15S
BRUNSWICK      MOSUNNY   55  32  41 W15       30.16R
SAINT SIMONS   MOSUNNY   55  31  39 W13G20    30.15R

$$

SCZ027-028-034-036>038-045-046-048>050-GAZ119-141-281700-
...LAKE AND SUPPLEMENTAL COASTAL OBSERVATIONS...

STATION/POSITION TIME  TEMP    WIND        PRES    WAVE   SWELL
                       AIR SEA DIR/SP/G            HT/PER HT/PER/DIR
                 (UTC) (F)     (DEG/KT/KT) (MB)    (FT/S) (FT/S/D)
UPR LAKE MARION  NOT AVBL
WINYAH BAY       NOT AVBL
LAKE MURRAY      1500   45     330/  3/ 10 1018.3R
ACE BASIN NERRS  NOT AVBL
FORT PULASKI     1506   49 61  300/ 12/ 17 1020.2R
SAPELO ISLAND    1500   52     290/ 10     1020.0S

$$

ANZ835-935-AMZ111-154-330-350-352-354-370-450-454-472-281700-
...C-MAN AND BUOY OBSERVATIONS...

STATION/POSITION TIME  TEMP    WIND        PRES    WAVE   SWELL
                       AIR SEA DIR/SP/G            HT/PER HT/PER/DIR
                 (UTC) (F)     (DEG/KT/KT) (MB)    (FT/S) (FT/S/D)
BUOY 41004       1550   51 68  310/ 12/ 17 1017.8R   5/ 7   3/ 7
BUOY 41008       1550   50 60  300/ 12/ 16 1020.2R   2/ 4   2/100/ 8
FOLLY BEACH CMAN 1600   53     320/  5/  9 1018.3F
CAPERS NEARSHORE NOT AVBL
FRIPP NEARSHORE  1500   51     310/ 12/ 14 1018.9R


STATION/POSITION TIME  TEMP    WIND        PRES    WAVE   SWELL
                       AIR SEA DIR/SP/G            HT/PER HT/PER/DIR
                 (UTC) (F)     (DEG/KT/KT) (MB)    (FT/S) (FT/S/D)
5E ST. MARYS GA  1521      61                N/A     3/ 9
FRYING PAN BUOY  1550   48 64  340/ 14/ 17 1017.3R   5/ 8   3/160/ 8
BUOY 41025       NOT AVBL
CAPE LOOKOUT NC  1600   46     300/  7/  9 1016.0R
BUOY 41002       1550   61 68  290/ 19/ 25 1014.8R  13/10   8/250/10
BUOY 41010       1520   64 75  300/ 17/ 23 1018.7R
ST AUGUSTINE FL  1600   56 60  310/ 14/ 16 1021.3R


$$



USA.gov is the U.S. government's official web portal to all federal, state and local government web resources and services.